Weather History for Pine Ridge, SD

Change the Weather History Date:

Monday, April 29, 2013

  Actual Average Record
Temperature  
Mean Temperature 60 °F 50 °F  
Max Temperature 76 °F 64 °F 81 °F (2008)
Min Temperature 43 °F 35 °F 21 °F (1998)
Degree Days  
Heating Degree Days 5 15  
Month to date heating degree days 758 568  
Since 1 July heating degree days 6760 6806  
Cooling Degree Days 0 0  
Month to date cooling degree days 0 0  
Year to date cooling degree days 0 0  
Growing Degree Days 10 (Base 50)    
Moisture  
Dew Point 34 °F    
Average Humidity 53    
Maximum Humidity 89    
Minimum Humidity 16    
Precipitation  
Precipitation 0.00 in 0.07 in 0.48 in (2003)
Month to date precipitation 1.11 1.83  
Year to date precipitation 2.36 3.49  
Sea Level Pressure  
Sea Level Pressure 29.61 in    
Wind  
Wind Speed 12 mph (SSW)    
Max Wind Speed 31 mph    
Max Gust Speed 38 mph    
Visibility 10 miles    
Events      
T = Trace of Precipitation, MM = Missing Value Source: NWS Daily Summary

Daily Weather History Graph

Daily Weather History Graph

Search for Another Location

Airport:

Trip Planner

Search our weather history database for the weather conditions in past years. The results will help you decide how hot, cold, wet, or windy it might be!

Date:

Astronomy

Apr. 29, 2013 Rise Set
Actual Time 5:46 AM MDT 7:49 PM MDT
Civil Twilight 5:15 AM MDT 8:20 PM MDT
Nautical Twilight 4:37 AM MDT 8:58 PM MDT
Astronomical Twilight 3:56 AM MDT 9:39 PM MDT
Moon No Moon Rise 9:06 AM MDT (4/29)
Length of Visible Light 15h 04m
Length of Day
14h 02m
Waning Gibbous, 79% of the Moon is Illuminated
Apr 29
Waning Gibbous
May 2
Last Quarter
May 9
New
May 17
First Quarter
May 24
Full

Hourly Weather History & Observations

Time (MDT) Temp. Windchill Dew Point Humidity Pressure Visibility Wind Dir Wind Speed Gust Speed Precip Events Conditions
12:52 AM 46.0 °F 42.5 °F 39.9 °F 79% 29.88 in 10.0 mi ESE 6.9 mph - N/A   Partly Cloudy
1:52 AM 45.0 °F 41.8 °F 41.0 °F 86% 29.86 in 10.0 mi East 5.8 mph - N/A   Mostly Cloudy
2:52 AM 46.9 °F - 39.0 °F 74% 29.82 in 10.0 mi East 9.2 mph - N/A   Overcast
3:52 AM 46.0 °F 40.2 °F 32.0 °F 58% 29.82 in 10.0 mi ESE 12.7 mph - N/A   Mostly Cloudy
4:52 AM 46.9 °F - 28.9 °F 50% 29.80 in 10.0 mi SE 15.0 mph - N/A   Clear
5:52 AM 44.1 °F 37.4 °F 30.9 °F 60% 29.78 in 10.0 mi SE 13.8 mph - N/A   Clear
6:52 AM 46.9 °F - 33.1 °F 59% 29.76 in 10.0 mi ESE 5.8 mph - N/A   Clear
7:52 AM 52.0 °F - 36.0 °F 54% 29.74 in 10.0 mi South 11.5 mph - N/A   Clear
8:52 AM 57.0 °F - 37.0 °F 47% 29.71 in 10.0 mi South 17.3 mph 21.9 mph N/A   Clear
9:52 AM 62.1 °F - 39.0 °F 43% 29.66 in 10.0 mi South 21.9 mph 26.5 mph N/A   Clear
10:52 AM 66.0 °F - 37.0 °F 34% 29.62 in 10.0 mi SW 13.8 mph - N/A   Clear
11:52 AM 69.1 °F - 32.0 °F 25% 29.59 in 10.0 mi West 9.2 mph 24.2 mph N/A   Clear
12:52 PM 70.0 °F - 28.0 °F 21% 29.57 in 10.0 mi SW 17.3 mph 25.3 mph N/A   Clear
1:52 PM 73.0 °F - 27.0 °F 18% 29.52 in 10.0 mi SW 13.8 mph 23.0 mph N/A   Clear
2:52 PM 75.0 °F - 27.0 °F 17% 29.48 in 10.0 mi SW 10.4 mph 20.7 mph N/A   Clear
3:52 PM 73.9 °F - 26.1 °F 17% 29.45 in 10.0 mi WSW 15.0 mph 23.0 mph N/A   Clear
4:52 PM 75.0 °F - 27.0 °F 17% 29.41 in 10.0 mi SSW 12.7 mph - N/A   Clear
5:52 PM 72.0 °F - 33.1 °F 24% 29.39 in 10.0 mi South 4.6 mph - N/A   Clear
6:52 PM 68.0 °F - 34.0 °F 28% 29.39 in 10.0 mi WSW 3.5 mph - N/A   Clear
7:52 PM 62.1 °F - 36.0 °F 38% 29.39 in 10.0 mi WSW 3.5 mph - N/A   Clear
8:52 PM 62.1 °F - 34.0 °F 35% 29.38 in 10.0 mi SW 11.5 mph - N/A   Clear
10:29 PM 53.6 °F - 37.4 °F 54% 29.54 in 9.0 mi NNW 18.4 mph 36.8 mph N/A   Clear
10:52 PM 51.1 °F - 39.0 °F 63% 29.51 in 10.0 mi North 19.6 mph 38.0 mph N/A   Clear
11:52 PM 48.0 °F - 37.9 °F 68% 29.57 in 10.0 mi North 10.4 mph 20.7 mph N/A   Clear